Regional Weather Roundup
Issued by NWS

Home | Current Version | Previous Version | Graphics & Text | Print | Product List | Glossary On
Versions: 1 2 3 4 5 6 7 8 9 10 11 12 13 14 15 16 17 18 19 20 21 22 23 24 25 26 27 28 29 30 31 32 33 34 35 36 37 38 39 40 41 42 43 44 45 46 47 48 49 50
000
ASUS45 KBOU 181407
RWRCO

WEATHER ROUNDUP FOR COLORADO
NATIONAL WEATHER SERVICE DENVER/BOULDER CO
800 AM MDT THU SEP 18 2014

NOTE: "FAIR" INDICATES FEW OR NO CLOUDS BELOW 12000 FEET WITH NO
SIGNIFICANT WEATHER AND/OR OBSTRUCTIONS TO VISIBILITY.

COZ001>005-013-030-031-181500-
...NORTHWEST COLORADO...

CITY           SKY/WX    TMP DP  RH WIND       PRES   REMARKS
CRAIG          SUNNY     44  40  85 CALM      30.15R
HAYDEN         SUNNY     52  36  54 E12       30.16R
MEEKER         SUNNY     48  38  68 CALM      30.16
MOUNT WERNER   NOT AVBL
STEAMBOAT SPGS SUNNY     44  38  80 CALM      30.18S
WALDEN         SUNNY     37  32  81 CALM      30.28S
$$

COZ006>008-011-181500-
...WEST CENTRAL VALLEYS...

CITY           SKY/WX    TMP DP  RH WIND       PRES   REMARKS
GRAND JUNCTION SUNNY     60  41  49 SE5       30.05R
MONTROSE       SUNNY     55  43  63 S6        30.14R
EAGLE          SUNNY     45  37  76 CALM      30.25R
RIFLE          SUNNY     52  42  69 CALM      30.13R
DELTA          SUNNY     60  42  51 NE6       30.10S HAZE
NUCLA          SUNNY     55  43  62 E5        30.17S
$$

COZ017>023-064>068-181500-
...SOUTHWEST COLORADO...

CITY           SKY/WX    TMP DP  RH WIND       PRES   REMARKS
DURANGO        SUNNY     48  45  89 CALM      30.17R
CORTEZ         SUNNY     48  46  93 CALM      30.14R
PAGOSA SPRINGS SUNNY     49  40  71 CALM      30.24S
TELLURIDE      NOT AVBL
WOLF CREEK PAS MOSUNNY   45  32  61 NE9       30.51R
$$

COZ009-010-012-014-032>034-037-058>063-181500-
...CENTRAL COLORADO...

CITY           SKY/WX    TMP DP  RH WIND       PRES   REMARKS
ASPEN          SUNNY     46  37  71 SE3       30.25R
BUENA VISTA    SUNNY     49  35  58 NE3       30.30R
COPPER MTN     SUNNY     54  28  37 S10       30.54S
BERTHOUD PASS  FAIR      45  43  93 MISG      30.59R
COTTONWOOD PAS SUNNY     57  30  35 CALM      30.39S
GUNNISON       SUNNY     43  34  70 CALM      30.31S
KREMMLING      SUNNY     37  34  87 CALM      30.30S
LEADVILLE      SUNNY     40  31  70 CALM      30.40R
SALIDA         SUNNY     53  36  53 NW6       30.35S
SUNLIGHT       SUNNY     54  34  47 CALM      30.46R
WILKERSON PASS NOT AVBL
$$

COZ069>075-181500-
...SAN LUIS VALLEY/SANGRE DE CRISTO MOUNTAINS...

CITY           SKY/WX    TMP DP  RH WIND       PRES   REMARKS
ALAMOSA        SUNNY     46  38  73 CALM      30.25R
LA VETA PASS   NOT AVBL
SAGUACHE       SUNNY     50  34  53 NW17      30.28R
$$

COZ035-036-038>040-181500-
...NORTHERN COLORADO FRONT RANGE...

CITY           SKY/WX    TMP DP  RH WIND       PRES   REMARKS
DENVER INTL AP MOSUNNY   65  42  43 SW10      30.06R
DMNS CITY PARK   N/A     62  43  49 S6        30.06S
AURORA         MOSUNNY   60  44  54 S8        30.08S
FRONT RANGE AP NOT AVBL
ERIE MUNI ARPT SUNNY     55  47  72 CALM      30.05R
BOULDER MUN AP SUNNY     61  43  51 CALM      30.05R
CENTENNIAL     SUNNY     59  45  59 SE6       30.09R
BROOMFIELD     MOSUNNY   63  39  42 CALM      30.08R
FORT COLLINS   SUNNY     55  46  71 CALM      30.05S
LONGMONT       SUNNY     56  47  71 CALM      30.06S HAZE
$$

COZ041-046-047-076>085-087-088-181500-
...PIKES PEAK/PALMER DIVIDE AND SOUTHERN FOOTHILLS...

CITY           SKY/WX    TMP DP  RH WIND       PRES   REMARKS
COLO. SPRINGS  MOSUNNY   63  40  42 N7        30.12S
A. F. ACADEMY  SUNNY     53  40  61 N8        30.14S
ELLICOTT       NOT AVBL
FALCON         SUNNY     62  43  49 NW5       30.17S
FORT CARSON    SUNNY     61  40  46 N10       30.09S
LIMON          SUNNY     59  43  55 W6        30.07R
MONUMENT HILL  SUNNY     59  37  44 S8        30.16S
TRINIDAD       SUNNY     59  34  39 W10       30.10R
$$

COZ042>045-048>051-090-091-181500-
...NORTHEAST COLORADO...

CITY           SKY/WX    TMP DP  RH WIND       PRES   REMARKS
GREELEY ARPT   SUNNY     52  41  66 CALM      30.05R
AKRON          SUNNY     63  46  54 W8        30.02S
BURLINGTON     FOG       60  59  96 SE5       30.01R VSB<1/4
WRAY           CLOUDY   N/A N/A N/A E3        29.99S FOG
STERLING       SUNNY     54  50  87 SW3       29.99S
HOLYOKE        CLOUDY    66  63  88 S6        29.99S
FORT MORGAN    SUNNY     55  47  77 W7        30.02S
$$

COZ086-089-092>099-181500-
...SOUTHEAST COLORADO...

CITY           SKY/WX    TMP DP  RH WIND       PRES   REMARKS
PUEBLO         SUNNY     60  41  49 CALM      30.03R
LA JUNTA       SUNNY     61  41  47 W8        30.00R
LAMAR          SUNNY     57  49  74 W6        29.97R
SPRINGFIELD      N/A     62  53  72 SW5       30.02R
$$



USA.gov is the U.S. government's official web portal to all federal, state and local government web resources and services.